Date String (YYYY-MM-DD hh:mm:ss) UTC,Instrument flags,absolute air pressure of the measurement (hPa),sample flow rate (lpm),inlet stack bypass flow (lpm),air temperature of the measurement (°C),ambient temperature measured by the external sensor (°C),aerosol sample conditioner tube jacket temperature (°C),OPC LED temperature (°C),internal box temperature (°C),relative humidity of the measurement (%),span deviation,mass concentration of particles derived from Lorenz-Mie calculation of OPC scattering (μg/m³),mass concentration of particles derived from Lorenz-Mie calculation of OPC scattering (μg/m³),mass concentration of particles derived from Lorenz-Mie calculation of OPC scattering (μg/m³)
DateTimeUTC,F1_M11,P_M11,Q1_M11,Q2_M11,T1_M11,T2_M11,T3_M11,T4_M11,T5_M11,U1_M11,ZSPAN_M11,X2_M11,X0_M11,X1_M11
2024-02-26 10:00:00,SystemResetWarning,0821.2,5.01,000.00,020.4,019.6,000.0,028.6,022.0,12.5,0000.0,0001.57,0004.35,0000.90
2024-02-26 10:01:00,SystemResetWarning,0821.1,4.99,000.00,020.4,019.6,000.0,028.6,022.0,12.5,0000.0,0001.56,0004.23,0000.91
2024-02-26 10:02:00,SystemResetWarning,0821.1,4.99,000.00,020.4,019.6,000.0,028.6,022.0,12.5,0000.0,0001.56,0005.11,0000.91
2024-02-26 10:03:00,SystemResetWarning,0821.1,5.01,000.00,020.4,019.6,000.0,028.6,022.0,12.5,0000.0,0001.54,0006.65,0000.91
2024-02-26 10:04:00,SystemResetWarning,0821.3,5.01,000.00,020.4,019.6,000.0,028.6,022.0,12.4,0000.0,0001.53,0006.39,0000.90
2024-02-26 10:05:00,SystemResetWarning,0821.1,5.00,000.00,020.4,019.6,000.0,028.6,022.0,12.4,0000.0,0001.49,0005.73,0000.89
2024-02-26 10:06:00,SystemResetWarning,0821.2,5.00,000.00,020.4,019.6,000.0,028.6,022.0,12.4,0000.0,0001.43,0005.51,0000.88
2024-02-26 10:07:00,SystemResetWarning,0821.4,5.00,000.00,020.4,019.6,000.0,028.6,022.0,12.5,0000.0,0001.46,0005.90,0000.88
2024-02-26 10:08:00,SystemResetWarning,0821.2,4.99,000.00,020.4,019.6,000.0,028.6,022.0,12.5,0000.0,0001.45,0005.90,0000.87
2024-02-26 10:09:00,SystemResetWarning,0821.1,5.00,000.00,020.4,019.6,000.0,028.6,022.0,12.6,0000.0,0001.45,0005.85,0000.87
2024-02-26 10:10:00,SystemResetWarning,0821.1,5.01,000.00,020.4,019.6,000.0,028.6,022.0,12.6,0000.0,0001.43,0005.75,0000.87
2024-02-26 10:11:00,SystemResetWarning,0821.1,5.01,000.00,020.4,019.6,000.0,028.6,022.0,12.6,0000.0,0001.37,0005.50,0000.85
2024-02-26 10:12:00,SystemResetWarning,0821.2,5.00,000.00,020.4,019.6,000.0,028.6,022.0,12.7,0000.0,0001.37,0005.59,0000.84
2024-02-26 10:13:00,SystemResetWarning,0821.0,5.01,000.00,020.4,019.6,000.0,028.6,022.0,12.8,0000.0,0001.39,0005.37,0000.85
2024-02-26 10:14:00,SystemResetWarning,0821.1,4.99,000.00,020.4,019.6,000.0,028.6,022.0,12.8,0000.0,0001.37,0003.55,0000.85
2024-02-26 10:15:00,SystemResetWarning,0821.1,5.00,000.00,020.4,019.6,000.0,028.6,022.0,12.8,0000.0,0001.36,0002.88,0000.85
2024-02-26 10:16:00,SystemResetWarning,0821.1,4.99,000.00,020.4,019.6,000.0,028.6,022.0,12.9,0000.0,0001.34,0002.87,0000.85
2024-02-26 10:17:00,SystemResetWarning,0821.0,5.00,000.00,020.4,019.6,000.0,028.6,022.0,12.9,0000.0,0001.31,0002.81,0000.83
2024-02-26 10:18:00,SystemResetWarning,0821.1,5.00,000.00,020.3,019.6,000.0,028.6,021.9,12.9,0000.0,0001.27,0002.57,0000.83
2024-02-26 10:19:00,SystemResetWarning,0820.9,4.99,000.00,020.3,019.6,000.0,028.6,021.9,12.9,0000.0,0001.23,0002.42,0000.83
2024-02-26 10:20:00,SystemResetWarning,0821.0,5.01,000.00,020.3,019.5,000.0,028.6,021.9,13.0,0000.0,0001.22,0002.44,0000.82
2024-02-26 10:21:00,SystemResetWarning,0821.2,5.00,000.00,020.3,019.5,000.0,028.6,021.9,13.0,0000.0,0001.23,0002.44,0000.83
2024-02-26 10:22:00,SystemResetWarning,0821.0,5.00,000.00,020.3,019.5,000.0,028.6,021.9,13.1,0000.0,0001.22,0002.48,0000.83
2024-02-26 10:23:00,SystemResetWarning,0821.2,5.00,000.00,020.3,019.5,000.0,028.6,021.9,13.1,0000.0,0001.24,0002.47,0000.84
2024-02-26 10:24:00,SystemResetWarning,0821.0,5.00,000.00,020.3,019.5,000.0,028.6,022.0,13.0,0000.0,0001.20,0002.75,0000.83
2024-02-26 10:25:00,SystemResetWarning,0820.9,5.00,000.00,020.3,019.5,000.0,028.6,022.0,13.0,0000.0,0001.22,0004.11,0000.83
2024-02-26 10:26:00,SystemResetWarning,0821.1,5.00,000.00,020.3,019.5,000.0,028.6,021.9,13.0,0000.0,0001.24,0005.69,0000.82
2024-02-26 10:27:00,SystemResetWarning,0820.9,5.00,000.00,020.3,019.5,000.0,028.6,022.0,13.0,0000.0,0001.22,0005.67,0000.81
2024-02-26 10:28:00,SystemResetWarning,0820.9,5.00,000.00,020.3,019.5,000.0,028.6,021.9,13.0,0000.0,0001.24,0005.66,0000.81
2024-02-26 10:29:00,SystemResetWarning,0820.9,5.01,000.00,020.3,019.5,000.0,028.6,021.9,13.0,0000.0,0001.27,0005.72,0000.82
2024-02-26 10:30:00,SystemResetWarning,0821.2,5.01,000.00,020.3,019.5,000.0,028.6,021.9,13.1,0000.0,0001.27,0005.86,0000.81
2024-02-26 10:31:00,SystemResetWarning,0821.0,5.00,000.00,020.3,019.5,000.0,028.6,021.9,13.1,0000.0,0001.28,0005.92,0000.81
2024-02-26 10:32:00,SystemResetWarning,0820.9,5.00,000.00,020.3,019.5,000.0,028.6,021.9,13.2,0000.0,0001.31,0006.11,0000.81
2024-02-26 10:33:00,SystemResetWarning,0821.0,5.01,000.00,020.3,019.5,000.0,028.6,021.9,13.2,0000.0,0001.31,0006.18,0000.80
2024-02-26 10:34:00,SystemResetWarning,0820.8,4.99,000.00,020.3,019.5,000.0,028.6,021.9,13.2,0000.0,0001.29,0006.11,0000.81
2024-02-26 10:35:00,SystemResetWarning,0820.8,5.00,000.00,020.3,019.5,000.0,028.6,021.9,13.3,0000.0,0001.30,0006.03,0000.81
2024-02-26 10:36:00,SystemResetWarning,0820.9,5.00,000.00,020.3,019.5,000.0,028.6,021.9,13.3,0000.0,0001.34,0004.89,0000.81
2024-02-26 10:37:00,SystemResetWarning,0820.8,5.00,000.00,020.3,019.5,000.0,028.6,021.9,13.3,0000.0,0001.33,0003.70,0000.82
2024-02-26 10:38:00,SystemResetWarning,0820.8,5.00,000.00,020.3,019.5,000.0,028.6,022.0,13.3,0000.0,0001.32,0003.16,0000.83
2024-02-26 10:39:00,SystemResetWarning,0820.8,5.01,000.00,020.3,019.5,000.0,028.6,022.0,13.4,0000.0,0001.36,0003.30,0000.84
2024-02-26 10:40:00,SystemResetWarning,0821.0,5.00,000.00,020.3,019.5,000.0,028.6,021.9,13.4,0000.0,0001.38,0003.37,0000.84
2024-02-26 10:41:00,SystemResetWarning,0820.9,5.00,000.00,020.3,019.5,000.0,028.6,021.9,13.4,0000.0,0001.34,0003.08,0000.84
2024-02-26 10:42:00,SystemResetWarning,0820.8,4.99,000.00,020.3,019.5,000.0,028.6,021.9,13.4,0000.0,0001.32,0003.04,0000.84
2024-02-26 10:43:00,SystemResetWarning,0820.8,4.99,000.00,020.3,019.5,000.0,028.6,022.0,13.5,0000.0,0001.30,0002.88,0000.83
2024-02-26 10:44:00,SystemResetWarning,0820.9,5.01,000.00,020.3,019.5,000.0,028.6,022.0,13.5,0000.0,0001.28,0002.75,0000.84
2024-02-26 10:45:00,SystemResetWarning,0820.8,5.01,000.00,020.3,019.5,000.0,028.6,021.9,13.5,0000.0,0001.32,0002.79,0000.83
2024-02-26 10:46:00,SystemResetWarning,0820.8,4.98,000.00,020.3,019.5,000.0,028.6,021.9,13.5,0000.0,0001.37,0002.97,0000.84
2024-02-26 10:47:00,SystemResetWarning,0820.8,5.01,000.00,020.3,019.5,000.0,028.6,021.9,13.4,0000.0,0001.31,0002.79,0000.83
2024-02-26 10:48:00,SystemResetWarning,0820.8,5.01,000.00,020.3,019.5,000.0,028.6,021.9,13.4,0000.0,0001.31,0002.71,0000.82
2024-02-26 10:49:00,SystemResetWarning,0820.8,5.00,000.00,020.3,019.5,000.0,028.6,021.9,13.4,0000.0,0001.34,0002.65,0000.82
2024-02-26 10:50:00,SystemResetWarning,0820.8,4.99,000.00,020.3,019.6,000.0,028.6,021.9,13.4,0000.0,0001.35,0003.03,0000.82
2024-02-26 10:51:00,SystemResetWarning,0820.8,5.00,000.00,020.3,019.6,000.0,028.6,021.9,13.4,0000.0,0001.29,0003.05,0000.81
2024-02-26 10:52:00,SystemResetWarning,0820.8,5.00,000.00,020.3,019.6,000.0,028.6,022.0,13.4,0000.0,0001.30,0003.10,0000.81
2024-02-26 10:53:00,SystemResetWarning,0820.8,5.00,000.00,020.3,019.6,000.0,028.6,021.9,13.5,0000.0,0001.30,0003.12,0000.80
2024-02-26 10:54:00,SystemResetWarning,0820.8,5.00,000.00,020.3,019.6,000.0,028.6,021.9,13.5,0000.0,0001.34,0003.12,0000.80
2024-02-26 10:55:00,SystemResetWarning,0820.8,4.97,000.00,020.3,019.6,000.0,028.6,021.9,13.5,0000.0,0001.32,0003.07,0000.80
2024-02-26 10:56:00,SystemResetWarning,0820.7,5.01,000.00,020.3,019.6,000.0,028.6,022.0,13.5,0000.0,0001.30,0002.99,0000.79
2024-02-26 10:57:00,SystemResetWarning,0820.7,5.02,000.00,020.3,019.6,000.0,028.6,021.9,13.5,0000.0,0001.24,0002.77,0000.79
2024-02-26 10:58:00,SystemResetWarning,0820.8,5.00,000.00,020.3,019.6,000.0,028.6,021.9,13.5,0000.0,0001.18,0002.56,0000.79
2024-02-26 10:59:00,SystemResetWarning,0820.8,4.99,000.00,020.3,019.6,000.0,028.6,021.9,13.5,0000.0,0001.20,0002.64,0000.78
